Larnaca, Cyprus

8:26 PM EEST on October 20, 2018 (GMT +0300)
Larnaca International

Weather History for LCLK - October, 2018

Change the Weather History Date:

Friday, October 12, 2018

  Actual Average Record
Temperature  
Mean Temperature 74 °F -  
Max Temperature 85 °F 77 °F 91 °F (2002)
Min Temperature 64 °F 58 °F 57 °F (2013)
Cooling Degree Days 10    
Growing Degree Days 24 (Base 50)    
Moisture  
Dew Point 58 °F    
Average Humidity 58    
Maximum Humidity 83    
Minimum Humidity 31    
Precipitation  
Precipitation 0.00 in 0.04 in - ()
Sea Level Pressure  
Sea Level Pressure 29.92 in    
Wind  
Wind Speed 6 mph ()    
Max Wind Speed 16 mph    
Max Gust Speed -    
Visibility 6.9 miles    
Events      
Averages and records for this station are not official NWS values.
T = Trace of Precipitation, MM = Missing Value Source: Averaged Metar Reports

Daily Weather History Graph

Daily Weather History Graph

Search for Another Location

Airport or City:

Astronomy

Oct. 12, 2018 Rise Set
Actual Time 6:48 AM EEST 6:14 PM EEST
Civil Twilight 6:23 AM EEST 6:40 PM EEST
Nautical Twilight 5:53 AM EEST 7:09 PM EEST
Astronomical Twilight 5:24 AM EEST 7:38 PM EEST
Moon 9:56 AM EEST (10/12) 8:43 PM EEST (10/12)
Length of Visible Light 12h 17m
Length of Day
11h 26m
Waxing Crescent, 12% of the Moon is Illuminated
Oct 12
Waxing Crescent
Oct 16
First Quarter
Oct 24
Full
Oct 31
Last Quarter
Nov 7
New

Hourly Weather History & Observations

Time (EEST) Temp. Heat Index Dew Point Humidity Pressure Visibility Wind Dir Wind Speed Gust Speed Precip Events Conditions
12:00 AM 69 °F - 61 °F 69% 29.94 in 12 mi NW 5.8 mph - -   Clear
12:00 AM 69.8 °F - 60.8 °F 73% 29.92 in - NW 5.8 mph - N/A   Clear
12:30 AM 68.0 °F - 60.8 °F 78% 29.92 in - West 6.9 mph - N/A   Clear
1:00 AM 68.0 °F - 62.6 °F 83% 29.92 in - WNW 5.8 mph - N/A   Clear
1:30 AM 68.0 °F - 62.6 °F 83% 29.92 in - WNW 4.6 mph - N/A   Clear
2:00 AM 68.0 °F - 62.6 °F 83% 29.92 in - West 4.6 mph - N/A   Clear
2:30 AM 68.0 °F - 62.6 °F 83% 29.92 in - WNW 6.9 mph - N/A   Clear
3:00 AM 68 °F - 61 °F 72% 29.92 in 12 mi NW 5.8 mph - -   Clear
3:00 AM 68.0 °F - 60.8 °F 78% 29.92 in - NW 5.8 mph - N/A   Clear
3:30 AM 68.0 °F - 60.8 °F 78% 29.89 in - NNW 6.9 mph - N/A   Clear
4:00 AM 66.2 °F - 59.0 °F 78% 29.89 in - NW 6.9 mph - N/A   Clear
4:30 AM 66.2 °F - 59.0 °F 78% 29.89 in - NW 3.5 mph - N/A   Clear
5:00 AM 66.2 °F - 59.0 °F 78% 29.89 in - WNW 3.5 mph - N/A   Clear
5:30 AM 66.2 °F - 57.2 °F 73% 29.89 in - NNW 3.5 mph - N/A   Clear
6:00 AM 65 °F - 56 °F 64% 29.92 in 12 mi WNW 3.5 mph - -   Scattered Clouds
6:00 AM 64.4 °F - 55.4 °F 73% 29.92 in 6.2 mi WNW 3.5 mph - N/A   Partly Cloudy
6:30 AM 66.2 °F - 55.4 °F 68% 29.92 in 6.2 mi WNW 8.1 mph - N/A   Partly Cloudy
7:00 AM 66.2 °F - 53.6 °F 64% 29.92 in 6.2 mi NW 5.8 mph - N/A   Partly Cloudy
7:30 AM 68.0 °F - 55.4 °F 64% 29.92 in 6.2 mi WNW 6.9 mph - N/A   Partly Cloudy
8:00 AM 69.8 °F - 55.4 °F 60% 29.95 in 6.2 mi WNW 5.8 mph - N/A   Partly Cloudy
8:30 AM 73.4 °F - 57.2 °F 57% 29.92 in 6.2 mi WNW 6.9 mph - N/A   Partly Cloudy
9:00 AM 79 °F - 57 °F 36% 29.94 in 9 mi NW 4.6 mph - -   Scattered Clouds
9:00 AM 78.8 °F - 57.2 °F 47% 29.95 in 6.2 mi NW 4.6 mph - N/A   Partly Cloudy
9:30 AM 80.6 °F 80.3 °F 53.6 °F 39% 29.92 in 6.2 mi North 3.5 mph - N/A   Partly Cloudy
10:00 AM 82.4 °F 81.4 °F 53.6 °F 37% 29.95 in 6.2 mi NW 3.5 mph - N/A   Partly Cloudy
10:30 AM 84.2 °F 82.8 °F 53.6 °F 35% 29.95 in 6.2 mi West 3.5 mph - N/A   Partly Cloudy
11:00 AM 84.2 °F 83.0 °F 55.4 °F 37% 29.92 in 6.2 mi Variable 3.5 mph - N/A   Partly Cloudy
11:30 AM 86.0 °F 84.5 °F 55.4 °F 35% 29.92 in 6.2 mi South 6.9 mph - N/A   Partly Cloudy
12:00 PM 85 °F - 59 °F 31% 29.92 in 9 mi South 8.1 mph - -   Scattered Clouds
12:00 PM 84.2 °F 83.8 °F 59.0 °F 42% 29.92 in 6.2 mi South 8.1 mph - N/A   Partly Cloudy
12:30 PM 84.2 °F 83.8 °F 59.0 °F 42% 29.92 in 6.2 mi South 11.5 mph - N/A   Partly Cloudy
1:00 PM 84.2 °F 84.4 °F 60.8 °F 45% 29.92 in 6.2 mi South 10.4 mph - N/A   Partly Cloudy
1:30 PM 84.2 °F 84.4 °F 60.8 °F 45% 29.89 in 6.2 mi South 11.5 mph - N/A   Partly Cloudy
2:00 PM 84.2 °F 84.4 °F 60.8 °F 45% 29.89 in 6.2 mi South 12.7 mph - N/A   Partly Cloudy
2:30 PM 84.2 °F 85.0 °F 62.6 °F 48% 29.89 in 6.2 mi South 11.5 mph - N/A   Partly Cloudy
3:00 PM 85 °F - 59 °F 31% 29.90 in 12 mi South 13.8 mph - -   Scattered Clouds
3:00 PM 84.2 °F 83.8 °F 59.0 °F 42% 29.89 in 6.2 mi South 13.8 mph - N/A   Partly Cloudy
3:30 PM 84.2 °F 84.4 °F 60.8 °F 45% 29.89 in 6.2 mi SSW 12.7 mph - N/A   Partly Cloudy
4:00 PM 82.4 °F 83.4 °F 62.6 °F 51% 29.92 in 6.2 mi SSW 10.4 mph - N/A   Partly Cloudy
4:30 PM 80.6 °F 81.5 °F 60.8 °F 51% 29.89 in 6.2 mi North 16.1 mph - N/A   Scattered Clouds
5:00 PM 80.6 °F 81.1 °F 59.0 °F 48% 29.92 in 6.2 mi North 15.0 mph - N/A   Scattered Clouds
5:30 PM 78.8 °F - 60.8 °F 54% 29.92 in 6.2 mi North 13.8 mph - N/A   Partly Cloudy
6:00 PM 77.0 °F - 55.4 °F 47% 29.92 in 6.2 mi North 11.5 mph - N/A   Partly Cloudy
6:30 PM 75.2 °F - 55.4 °F 50% 29.92 in 6.2 mi North 10.4 mph - N/A   Partly Cloudy
7:00 PM 75.2 °F - 53.6 °F 47% 29.95 in 6.2 mi North 8.1 mph - N/A   Partly Cloudy
7:30 PM 75.2 °F - 55.4 °F 50% 29.92 in 6.2 mi North 5.8 mph - N/A   Partly Cloudy
8:00 PM 75.2 °F - 57.2 °F 53% 29.95 in 6.2 mi North 6.9 mph - N/A   Partly Cloudy
8:30 PM 75.2 °F - 60.8 °F 61% 29.95 in 6.2 mi NNE 5.8 mph - N/A   Partly Cloudy
9:00 PM 72 °F - 59 °F 55% 29.96 in 9 mi North 4.6 mph - -   Scattered Clouds
9:00 PM 73.4 °F - 59.0 °F 61% 29.95 in 6.2 mi North 4.6 mph - N/A   Partly Cloudy
9:30 PM 71.6 °F - 57.2 °F 60% 29.95 in 6.2 mi Variable 1.2 mph - N/A   Partly Cloudy
10:00 PM 69.8 °F - 57.2 °F 64% 29.95 in 6.2 mi Variable 2.3 mph - N/A   Partly Cloudy
10:30 PM 69.8 °F - 57.2 °F 64% 29.95 in 6.2 mi NW 5.8 mph - N/A   Partly Cloudy
11:00 PM 68.0 °F - 57.2 °F 68% 29.95 in 6.2 mi WNW 4.6 mph - N/A   Partly Cloudy
11:30 PM 69.8 °F - 57.2 °F 64% 29.95 in 6.2 mi NW 4.6 mph - N/A   Partly Cloudy